DEDEA EDLW-EDDG

Flight info

Callsign DEDEA
Flight time 0h -18m
Altitude
Route EDLW/06 VFR
Aircraft DA40

Departure

Time 2026-04-29 17:35
Airport Dortmund Airport (EDLW)

Arrival

Time 2026-04-29 17:16
Airport Münster Osnabrück Airport (EDDG)
Time Latitude Longitude Altitude Speed Heading
2026-04-29 17:16 52.13377 7.68025 161 ft 44 kts 72°
2026-04-29 17:16 52.13391 7.68240 163 ft 12 kts 121°
2026-04-29 17:17 52.13346 7.68277 163 ft 6 kts 159°
2026-04-29 17:17 52.13317 7.68292 163 ft 0 kts 163°
2026-04-29 17:18 52.13272 7.68314 163 ft 11 kts 163°
2026-04-29 17:19 52.13204 7.68349 164 ft 11 kts 162°
2026-04-29 17:19 52.13152 7.68329 163 ft 7 kts 274°
2026-04-29 17:19 52.13152 7.68315 163 ft 0 kts 270°
2026-04-29 17:24 52.13152 7.68314 163 ft 2 kts 270°
2026-04-29 17:24 52.13191 7.68279 162 ft 12 kts 50°
2026-04-29 17:24 52.13230 7.68339 163 ft 9 kts 334°
2026-04-29 17:25 52.13282 7.68306 163 ft 8 kts 342°
2026-04-29 17:25 52.13319 7.68286 163 ft 0 kts 339°
2026-04-29 17:25 52.13330 7.68280 163 ft 0 kts 340°
2026-04-29 17:26 52.13395 7.68265 163 ft 17 kts 25°
2026-04-29 17:26 52.13452 7.68422 163 ft 29 kts 70°
2026-04-29 17:26 52.13581 7.69031 168 ft 78 kts 71°
2026-04-29 17:26 52.13696 7.69864 452 ft 75 kts 112°
2026-04-29 17:27 52.13129 7.69703 586 ft 106 kts 212°
2026-04-29 17:27 52.12537 7.68968 764 ft 109 kts 237°
2026-04-29 17:27 52.11990 7.68824 920 ft 89 kts 141°
2026-04-29 17:27 52.11372 7.69178 1020 ft 102 kts 165°
2026-04-29 17:28 52.10635 7.69241 1092 ft 109 kts 169°
2026-04-29 17:28 52.09874 7.69249 1181 ft 109 kts 171°
2026-04-29 17:28 52.09091 7.69098 1237 ft 117 kts 183°
2026-04-29 17:28 52.08295 7.68750 1331 ft 118 kts 185°
2026-04-29 17:29 52.07492 7.68423 1380 ft 121 kts 185°
2026-04-29 17:29 52.06684 7.68140 1511 ft 118 kts 183°
2026-04-29 17:29 52.05879 7.67851 1606 ft 120 kts 183°
2026-04-29 17:29 52.05337 7.67665 1652 ft 121 kts 182°
2026-04-29 17:30 52.04250 7.67377 1761 ft 118 kts 178°
2026-04-29 17:30 52.03448 7.67191 1869 ft 114 kts 178°
2026-04-29 17:30 52.02664 7.67001 2004 ft 112 kts 178°
2026-04-29 17:30 52.01950 7.66746 2240 ft 107 kts 179°
2026-04-29 17:31 52.01202 7.66508 2384 ft 109 kts 179°
2026-04-29 17:31 52.00462 7.66266 2516 ft 112 kts 179°
2026-04-29 17:31 51.99698 7.66025 2582 ft 116 kts 179°
2026-04-29 17:31 51.98885 7.65771 2608 ft 120 kts 179°
2026-04-29 17:32 51.98072 7.65516 2697 ft 117 kts 179°
2026-04-29 17:32 51.97268 7.65264 2749 ft 120 kts 179°
2026-04-29 17:32 51.96432 7.65005 2748 ft 122 kts 179°
2026-04-29 17:32 51.95590 7.64751 2738 ft 124 kts 179°
2026-04-29 17:33 51.94736 7.64496 2705 ft 125 kts 179°
2026-04-29 17:33 51.93876 7.64237 2671 ft 126 kts 179°
2026-04-29 17:33 51.93024 7.63981 2690 ft 124 kts 179°
2026-04-29 17:33 51.92169 7.63730 2676 ft 124 kts 179°
2026-04-29 17:34 51.91319 7.63478 2674 ft 126 kts 179°
2026-04-29 17:34 51.90458 7.63227 2723 ft 124 kts 179°
2026-04-29 17:34 51.89627 7.62976 2792 ft 121 kts 179°
2026-04-29 17:34 51.88798 7.62725 2808 ft 123 kts 179°
2026-04-29 17:35 51.87677 7.62385 2869 ft 122 kts 179°
2026-04-29 17:35 51.86289 7.61979 2822 ft 125 kts 179°
2026-04-29 17:35 51.85422 7.61738 2736 ft 129 kts 179°
2026-04-29 17:36 51.84553 7.61496 2717 ft 125 kts 179°
2026-04-29 17:36 51.83704 7.61245 2724 ft 125 kts 179°
2026-04-29 17:36 51.82856 7.60987 2777 ft 122 kts 179°
2026-04-29 17:36 51.82000 7.60728 2744 ft 126 kts 179°
2026-04-29 17:37 51.81144 7.60472 2751 ft 123 kts 179°
2026-04-29 17:37 51.80315 7.60228 2748 ft 124 kts 179°
2026-04-29 17:37 51.79458 7.59978 2731 ft 124 kts 179°
2026-04-29 17:37 51.78613 7.59733 2728 ft 124 kts 179°
2026-04-29 17:38 51.77764 7.59489 2713 ft 123 kts 179°
2026-04-29 17:38 51.76907 7.59252 2666 ft 126 kts 179°
2026-04-29 17:38 51.76051 7.59006 2688 ft 125 kts 179°
2026-04-29 17:38 51.75167 7.58765 2536 ft 130 kts 179°
2026-04-29 17:39 51.74279 7.58530 2451 ft 129 kts 179°
2026-04-29 17:39 51.73419 7.58283 2479 ft 122 kts 179°
2026-04-29 17:39 51.72600 7.58064 2543 ft 116 kts 172°
2026-04-29 17:39 51.71797 7.58067 2572 ft 113 kts 163°
2026-04-29 17:40 51.71004 7.58131 2630 ft 116 kts 167°
2026-04-29 17:40 51.70204 7.58210 2636 ft 114 kts 160°
2026-04-29 17:40 51.69425 7.58381 2668 ft 112 kts 159°
2026-04-29 17:40 51.68637 7.58554 2673 ft 115 kts 162°
2026-04-29 17:41 51.67851 7.58702 2709 ft 114 kts 161°
2026-04-29 17:41 51.67066 7.58884 2709 ft 114 kts 159°
2026-04-29 17:41 51.66550 7.59006 2714 ft 113 kts 160°
2026-04-29 17:41 51.65725 7.58781 2640 ft 132 kts 197°
2026-04-29 17:42 51.64806 7.57471 2658 ft 134 kts 219°
2026-04-29 17:42 51.64109 7.56448 2613 ft 134 kts 207°
2026-04-29 17:42 51.63331 7.55678 2618 ft 132 kts 199°
2026-04-29 17:42 51.62773 7.55210 2534 ft 136 kts 196°
2026-04-29 17:43 51.61917 7.54571 2467 ft 134 kts 194°
2026-04-29 17:43 51.61107 7.53978 2548 ft 128 kts 191°
2026-04-29 17:43 51.60269 7.53450 2518 ft 129 kts 189°
2026-04-29 17:43 51.59411 7.53220 2359 ft 127 kts 170°
2026-04-29 17:44 51.58494 7.53246 1894 ft 129 kts 168°
2026-04-29 17:44 51.57701 7.53310 1523 ft 108 kts 162°
2026-04-29 17:44 51.56975 7.53571 1325 ft 107 kts 150°
2026-04-29 17:44 51.56307 7.54043 1271 ft 104 kts 148°
2026-04-29 17:45 51.55707 7.54624 1321 ft 96 kts 138°
2026-04-29 17:45 51.55167 7.55284 1311 ft 98 kts 133°
2026-04-29 17:45 51.54663 7.55967 1373 ft 89 kts 127°
2026-04-29 17:45 51.54236 7.56650 1408 ft 86 kts 126°
2026-04-29 17:46 51.53791 7.57417 1395 ft 97 kts 123°
2026-04-29 17:46 51.53405 7.58290 1469 ft 97 kts 116°
2026-04-29 17:46 51.52990 7.59150 1474 ft 106 kts 139°
2026-04-29 17:46 51.52188 7.58828 1232 ft 142 kts 223°
2026-04-29 17:47 51.51668 7.57501 1214 ft 142 kts 238°
2026-04-29 17:47 51.50971 7.57027 1287 ft 105 kts 116°
2026-04-29 17:47 51.50941 7.58162 971 ft 96 kts 83°
2026-04-29 17:47 51.51095 7.59054 751 ft 73 kts 68°
2026-04-29 17:48 51.51308 7.59713 592 ft 61 kts 62°
2026-04-29 17:48 51.51493 7.60255 479 ft 50 kts 63°
2026-04-29 17:48 51.51663 7.60737 440 ft 54 kts 60°
2026-04-29 17:48 51.51857 7.61307 412 ft 55 kts 60°
2026-04-29 17:49 51.52016 7.61752 407 ft 38 kts 60°
2026-04-29 17:49 51.52125 7.62063 406 ft 26 kts 61°
2026-04-29 17:49 51.52183 7.62295 404 ft 19 kts 112°
2026-04-29 17:49 51.52118 7.62374 404 ft 1 kts 150°
2026-04-29 17:51 51.52096 7.62392 403 ft 16 kts 164°
2026-04-29 17:51 51.52035 7.62355 404 ft 9 kts 246°
2026-04-29 17:51 51.51973 7.62169 407 ft 32 kts 241°
2026-04-29 17:51 51.51860 7.61846 411 ft 32 kts 240°
2026-04-29 17:52 51.51752 7.61546 416 ft 29 kts 239°
2026-04-29 17:52 51.51688 7.61365 420 ft 27 kts 243°
2026-04-29 17:52 51.51615 7.61146 420 ft 0 kts 240°
2026-04-29 17:53 51.51605 7.61118 419 ft 13 kts 240°
2026-04-29 17:53 51.51566 7.61037 423 ft 2 kts 166°
2026-04-29 17:53 51.51518 7.61059 427 ft 11 kts 188°
2026-04-29 17:53 51.51483 7.60982 422 ft 14 kts 242°
2026-04-29 17:54 51.51412 7.60779 430 ft 26 kts 240°
2026-04-29 17:54 51.51307 7.60483 439 ft 35 kts 240°
2026-04-29 17:54 51.51206 7.60198 446 ft 16 kts 241°
2026-04-29 17:54 51.51174 7.60150 451 ft 1 kts 131°
2026-04-29 17:55 51.51160 7.60211 454 ft 6 kts 69°
2026-04-29 17:55 51.51195 7.60305 452 ft 16 kts 58°
2026-04-29 17:55 51.51199 7.60392 456 ft 0 kts 105°
2026-04-29 17:59 51.51198 7.60396 457 ft 3 kts 91°
2026-04-29 17:59 51.51250 7.60457 451 ft 11 kts 81°
2026-04-29 18:00 51.51226 7.60434 453 ft 18 kts 258°
2026-04-29 18:00 51.51173 7.60246 453 ft 12 kts 235°
2026-04-29 18:00 51.51167 7.60156 452 ft 7 kts 359°
2026-04-29 18:00 51.51221 7.60235 441 ft 13 kts 60°
2026-04-29 18:01 51.51269 7.60371 433 ft 17 kts 60°
2026-04-29 18:01 51.51341 7.60575 437 ft 21 kts 60°
2026-04-29 18:01 51.51406 7.60758 433 ft 19 kts 60°
2026-04-29 18:01 51.51482 7.60972 422 ft 20 kts 60°
2026-04-29 18:02 51.51573 7.61029 420 ft 12 kts 315°
2026-04-29 18:02 51.51567 7.60938 418 ft 19 kts 255°
2026-04-29 18:02 51.51525 7.60697 413 ft 10 kts 257°
2026-04-29 18:02 51.51524 7.60688 411 ft 0 kts 264°
2026-04-29 18:03 51.51552 7.60620 414 ft 17 kts 323°
2026-04-29 18:03 51.51635 7.60663 416 ft 7 kts 61°
2026-04-29 18:04 51.51636 7.60666 416 ft 0 kts 60°
2026-04-29 18:04 51.51641 7.60682 416 ft 15 kts 60°
2026-04-29 18:04 51.51792 7.61097 440 ft 64 kts 60°
2026-04-29 18:05 51.52017 7.61748 692 ft 66 kts 61°
2026-04-29 18:05 51.52259 7.62422 919 ft 73 kts 62°
2026-04-29 18:05 51.52702 7.62989 1002 ft 88 kts 28°
2026-04-29 18:05 51.53260 7.63308 1234 ft 71 kts 33°
2026-04-29 18:06 51.53704 7.63605 1455 ft 79 kts 21°
2026-04-29 18:06 51.54300 7.63466 1553 ft 103 kts 345°
2026-04-29 18:06 51.54962 7.62940 1639 ft 108 kts 343°
2026-04-29 18:06 51.55638 7.62440 1740 ft 107 kts 348°
2026-04-29 18:07 51.56358 7.62077 1766 ft 111 kts 354°
2026-04-29 18:07 51.57119 7.61635 1759 ft 117 kts 351°
2026-04-29 18:07 51.57870 7.61170 1831 ft 117 kts 351°
2026-04-29 18:07 51.58632 7.60694 1865 ft 117 kts 351°
2026-04-29 18:08 51.59393 7.60215 1890 ft 118 kts 350°
2026-04-29 18:08 51.60058 7.59293 1811 ft 139 kts 307°
2026-04-29 18:08 51.60233 7.57784 1824 ft 142 kts 268°
2026-04-29 18:08 51.60120 7.56216 1898 ft 139 kts 263°
2026-04-29 18:09 51.59995 7.54658 1914 ft 142 kts 263°
2026-04-29 18:09 51.59903 7.53076 1918 ft 144 kts 268°
2026-04-29 18:09 51.59836 7.51474 1969 ft 142 kts 268°
2026-04-29 18:09 51.59801 7.49896 2028 ft 140 kts 268°
2026-04-29 18:10 51.59712 7.48339 2045 ft 141 kts 264°
2026-04-29 18:10 51.59580 7.46784 2066 ft 140 kts 262°
2026-04-29 18:10 51.59441 7.45224 2078 ft 141 kts 262°
2026-04-29 18:10 51.59301 7.43653 2083 ft 145 kts 262°
2026-04-29 18:11 51.59156 7.42045 2098 ft 142 kts 261°
2026-04-29 18:11 51.59015 7.40465 2081 ft 144 kts 262°
2026-04-29 18:11 51.58858 7.38871 2070 ft 144 kts 257°
2026-04-29 18:11 51.58590 7.37337 2074 ft 140 kts 252°
2026-04-29 18:12 51.58233 7.35856 2076 ft 142 kts 246°
2026-04-29 18:12 51.57875 7.34379 2134 ft 142 kts 246°
2026-04-29 18:12 51.57546 7.32915 2158 ft 140 kts 248°
2026-04-29 18:12 51.57217 7.31467 2227 ft 138 kts 246°
2026-04-29 18:13 51.56903 7.30004 2280 ft 138 kts 247°
2026-04-29 18:13 51.56596 7.28556 2361 ft 136 kts 247°
2026-04-29 18:13 51.56285 7.27091 2355 ft 142 kts 247°
2026-04-29 18:13 51.55963 7.25609 2399 ft 138 kts 247°
2026-04-29 18:14 51.55636 7.24158 2418 ft 140 kts 247°
2026-04-29 18:14 51.55307 7.22660 2416 ft 143 kts 248°
2026-04-29 18:14 51.54979 7.21162 2451 ft 142 kts 248°
2026-04-29 18:14 51.54638 7.19655 2454 ft 143 kts 247°
2026-04-29 18:15 51.54305 7.18154 2448 ft 144 kts 247°
2026-04-29 18:15 51.53970 7.16636 2447 ft 141 kts 248°
2026-04-29 18:15 51.53637 7.15148 2451 ft 142 kts 247°
2026-04-29 18:15 51.53294 7.13635 2395 ft 146 kts 247°
2026-04-29 18:16 51.52960 7.12100 2370 ft 145 kts 247°
2026-04-29 18:16 51.52630 7.10582 2378 ft 143 kts 247°
2026-04-29 18:16 51.52309 7.09057 2353 ft 145 kts 247°
2026-04-29 18:16 51.51991 7.07568 2404 ft 140 kts 248°
2026-04-29 18:17 51.51667 7.06069 2388 ft 142 kts 247°
2026-04-29 18:17 51.51337 7.04554 2353 ft 144 kts 248°
2026-04-29 18:17 51.51001 7.03058 2369 ft 142 kts 247°
2026-04-29 18:17 51.50656 7.01541 2356 ft 145 kts 247°
2026-04-29 18:18 51.50313 7.00030 2349 ft 146 kts 247°
2026-04-29 18:18 51.49967 6.98481 2300 ft 148 kts 247°
2026-04-29 18:18 51.49631 6.96930 2264 ft 147 kts 247°
2026-04-29 18:18 51.49295 6.95374 2191 ft 147 kts 247°
2026-04-29 18:19 51.48959 6.93827 2153 ft 147 kts 248°
2026-04-29 18:19 51.48604 6.92290 2096 ft 146 kts 247°
2026-04-29 18:19 51.48253 6.90781 2123 ft 140 kts 247°
2026-04-29 18:19 51.47925 6.89320 2125 ft 141 kts 247°
2026-04-29 18:20 51.47601 6.87825 2107 ft 143 kts 248°
2026-04-29 18:20 51.47277 6.86328 2123 ft 143 kts 248°
2026-04-29 18:20 51.46934 6.84811 2105 ft 144 kts 247°
2026-04-29 18:20 51.46597 6.83318 2154 ft 142 kts 248°
2026-04-29 18:21 51.46227 6.81870 2175 ft 140 kts 237°
2026-04-29 18:21 51.45731 6.80570 2198 ft 136 kts 227°
2026-04-29 18:21 51.45173 6.79327 2223 ft 137 kts 228°
2026-04-29 18:21 51.44619 6.78077 2211 ft 139 kts 228°
2026-04-29 18:22 51.44062 6.76806 2200 ft 139 kts 229°
2026-04-29 18:22 51.43492 6.75545 2166 ft 141 kts 228°
2026-04-29 18:22 51.42912 6.74298 2180 ft 138 kts 224°
2026-04-29 18:22 51.42143 6.73479 2103 ft 130 kts 181°
2026-04-29 18:23 51.41312 6.73599 2096 ft 117 kts 156°
2026-04-29 18:23 51.40532 6.73880 2139 ft 113 kts 154°
2026-04-29 18:23 51.40031 6.74084 2193 ft 110 kts 152°
2026-04-29 18:23 51.39049 6.74550 2245 ft 110 kts 151°
2026-04-29 18:24 51.38564 6.74785 2271 ft 110 kts 151°
2026-04-29 18:24 51.37826 6.75145 2292 ft 111 kts 153°
2026-04-29 18:24 51.36860 6.75664 2299 ft 110 kts 151°
2026-04-29 18:24 51.36371 6.75933 2307 ft 110 kts 151°
2026-04-29 18:25 51.35648 6.76329 2309 ft 110 kts 151°
2026-04-29 18:25 51.34924 6.76727 2336 ft 110 kts 150°
2026-04-29 18:25 51.34198 6.77113 2327 ft 110 kts 150°
2026-04-29 18:25 51.33477 6.77481 2305 ft 110 kts 151°
2026-04-29 18:26 51.32743 6.77840 2256 ft 112 kts 158°
2026-04-29 18:26 51.31903 6.77556 2011 ft 136 kts 195°
2026-04-29 18:26 51.31164 6.76943 1684 ft 115 kts 216°
2026-04-29 18:26 51.30643 6.75986 1382 ft 121 kts 225°
2026-04-29 18:27 51.30104 6.74924 1190 ft 122 kts 225°
2026-04-29 18:27 51.29578 6.73855 1041 ft 121 kts 230°
2026-04-29 18:27 51.29080 6.72768 922 ft 121 kts 230°
2026-04-29 18:27 51.28421 6.72159 862 ft 107 kts 156°
2026-04-29 18:28 51.27793 6.72616 741 ft 88 kts 139°
2026-04-29 18:28 51.27296 6.73024 597 ft 73 kts 134°
2026-04-29 18:28 51.27196 6.73584 457 ft 64 kts 53°
2026-04-29 18:28 51.27496 6.74251 420 ft 81 kts 48°
2026-04-29 18:29 51.27899 6.75076 276 ft 100 kts 51°
2026-04-29 18:29 51.28263 6.75812 135 ft 68 kts 52°
2026-04-29 18:29 51.28495 6.76298 123 ft 44 kts 55°
2026-04-29 18:29 51.28601 6.76533 124 ft 15 kts 56°
2026-04-29 18:30 51.28602 6.76655 123 ft 11 kts 141°
2026-04-29 18:30 51.28530 6.76738 121 ft 14 kts 143°
2026-04-29 18:30 51.28474 6.76744 120 ft 6 kts 232°
2026-04-29 18:30 51.28411 6.76613 120 ft 20 kts 232°
2026-04-29 18:31 51.28326 6.76435 120 ft 20 kts 232°
2026-04-29 18:31 51.28243 6.76263 122 ft 19 kts 234°
2026-04-29 18:31 51.28165 6.76095 123 ft 19 kts 232°
2026-04-29 18:31 51.28087 6.75935 124 ft 18 kts 232°
2026-04-29 18:32 51.28011 6.75769 123 ft 19 kts 232°
2026-04-29 18:32 51.27846 6.75426 120 ft 21 kts 233°
2026-04-29 18:32 51.27756 6.75237 115 ft 22 kts 233°
2026-04-29 18:33 51.27705 6.75185 116 ft 5 kts 175°
2026-04-29 18:33 51.27619 6.75181 114 ft 16 kts 172°
2026-04-29 18:33 51.27512 6.75228 115 ft 16 kts 148°
2026-04-29 18:33 51.27414 6.75281 115 ft 12 kts 166°
2026-04-29 18:34 51.27396 6.75346 116 ft 3 kts 78°